CAPE
0 0 0 0 0 0 0 0 0 0 0 0 0 0 0 0 0 0 0 0 0 0 0 0 0 0 0 0 0 0 0 0 0 2 0 282 673 591 267 284 769 945 801 663 241
0 0 0 0 0 0 0 0 0 0 0 0 0 0 0 0 0 0 0 0 0 0 0 0 0 0 0 0 0 0 0 0 0 1 34 723 708 630 243 255 297 364 357 194 65
0 0 0 0 0 0 0 0 0 0 0 0 0 0 0 0 0 0 0 0 0 0 0 0 0 0 0 0 0 0 0 0 0 0 229 855 648 1136 319 742 350 269 457 480 326
0 0 0 0 0 0 0 0 0 0 0 0 0 0 0 0 0 0 0 0 0 0 0 0 0 0 0 0 0 0 0 0 0 12 193 422 303 135 361 272 281 155 61 20 5
0 0 0 0 0 0 0 0 0 0 0 0 0 0 0 0 0 0 0 0 0 0 0 0 0 0 0 0 0 0 0 0 0 2 2 1 0 0 0 0 0 0 0 0 0
0 0 0 0 0 0 0 0 0 0 0 0 0 0 0 0 0 0 0 0 0 0 0 0 0 0 0 0 0 0 0 0 0 0 0 0 0 0 0 0 0 0 0 0 0
0 0 0 0 0 0 0 0 0 0 0 0 0 0 0 0 0 0 0 0 0 0 0 0 0 0 0 0 0 0 0 0 0 0 0 0 0 0 0 0 0 0 0 0 0
0 0 0 0 0 0 0 0 0 0 0 0 0 0 0 0 0 0 0 0 0 0 0 0 0 0 0 0 0 0 0 0 0 0 0 0 0 0 0 0 0 0 0 0 0
0 0 0 0 0 0 0 0 0 0 0 0 0 0 0 0 0 0 0 0 0 0 0 0 0 0 0 0 0 0 0 0 0 0 0 0 0 0 0 0 0 0 0 0 0
0 0 0 0 0 0 0 0 0 0 0 0 0 0 0 0 0 0 0 0 0 0 0 0 0 0 0 0 0 0 0 0 0 0 0 0 0 0 0 0 0 0 0 0 0
0 0 0 0 0 0 0 0 0 0 0 0 0 0 0 0 0 0 0 0 0 0 0 0 0 0 0 0 0 0 0 0 0 0 0 0 0 0 0 0 0 0 0 0 0
0 0 0 0 0 0 0 0 0 0 0 0 0 0 0 0 0 0 0 0 0 0 0 0 0 0 0 0 0 0 0 1 2 0 0 0 0 0 0 0 0 0 0 0 0
0 0 0 0 0 0 0 0 0 0 0 0 0 0 0 0 0 0 0 0 0 0 0 0 0 0 0 0 0 0 0 0 1 0 0 0 0 0 0 0 0 0 0 0 0
0 0 0 0 0 0 0 0 0 0 0 0 0 0 0 0 0 0 0 0 0 0 0 0 0 0 0 0 0 0 0 0 2 0 0 0 0 0 0 0 0 0 0 0 0
0 0 0 0 0 0 0 0 0 0 0 0 0 0 0 0 0 0 0 0 0 0 0 0 0 0 0 0 0 0 0 0 0 2 0 0 0 0 0 0 0 0 0 0 0
0 0 0 0 0 0 0 0 0 0 0 3 0 0 0 0 0 0 0 0 0 0 0 0 0 0 0 0 0 0 0 0 0 1 0 0 0 0 0 0 0 0 0 0 0
0 0 0 0 0 0 0 0 0 0 0 1 6 0 0 0 0 0 0 0 0 0 0 0 0 0 0 0 0 0 0 0 0 0 0 0 0 0 0 0 0 0 0 0 0
0 0 0 0 0 0 0 0 0 0 6 5 0 0 0 0 0 0 0 0 0 0 0 0 0 0 0 0 0 0 0 0 1 9 0 0 0 0 0 0 0 0 0 0 0
0 0 0 0 0 0 0 0 0 14 0 0 0 0 0 0 0 4 0 0 0 0 0 0 0 0 0 0 0 0 0 2 0 0 1 0 0 0 0 0 0 0 0 0 0
0 0 0 0 0 0 0 0 0 0 0 0 0 0 17 23 3 32 45 0 0 4 10 0 0 29 0 0 0 0 0 0 27 32 23 0 3 0 0 0 0 0 0 0 0
0 0 0 0 0 0 0 0 18 0 0 0 0 0 1 10 63 15 9 0 0 0 0 14 14 1 33 0 0 0 0 0 0 0 28 3 10 0 0 0 0 0 0 0 0
0 3 0 0 0 0 0 0 0 0 0 0 0 0 0 0 0 25 0 0 0 0 0 0 0 1 39 60 2 17 2 14 25 0 0 8 0 0 0 0 0 0 0 0 0
2 0 0 0 0 26 23 0 0 0 0 0 0 0 0 0 0 0 20 0 0 0 0 0 1 18 58 75 137 78 6 0 43 26 0 63 15 0 0 0 0 0 0 0 0
12 16 0 0 0 0 2 43 39 0 0 0 0 0 0 0 0 0 0 0 0 0 0 0 2 83 119 126 0 9 11 0 0 3 6 34 0 0 0 0 0 0 0 0 0
0 10 9 22 25 5 0 0 2 8 0 0 0 7 0 0 0 0 12 6 0 0 0 0 0 0 5 8 3 0 0 0 8 3 0 0 0 0 0 0 0 0 0 0 0
0 0 0 0 0 0 2 7 0 0 0 0 0 0 0 0 0 0 0 0 0 0 0 0 0 0 0 0 4 0 0 0 0 1 11 0 0 0 0 0 0 0 0 0 0
0 0 0 0 0 0 0 0 0 0 0 0 0 0 0 0 0 0 0 0 0 0 0 0 2 0 0 0 24 0 0 0 0 0 0 2 0 0 0 0 0 0 0 0 0
CIN
0 0 0 0 0 0 0 0 0 0 0 0 0 0 0 0 0 0 0 0 0 0 0 0 0 0 0 0 0 0 0 0 0 -5 -8 -8 -41 -63 -124 -171 -4 -30 -89 -81 -105
0 0 0 0 0 0 0 0 0 0 0 0 0 0 0 0 0 0 0 0 0 0 0 0 0 0 0 0 0 0 0 0 0 -8 -116 -8 -45 -97 -11 -13 -34 -80 -76 -81 -85
0 0 0 0 0 0 0 0 0 0 0 0 0 0 0 0 0 0 0 0 0 0 0 0 0 0 0 0 0 0 0 0 -2 0 -77 -41 -94 -29 -34 -3 -17 -13 -19 -32 -58
0 0 0 0 0 0 0 0 0 0 0 0 0 0 0 0 0 0 0 0 0 0 0 0 0 0 0 0 0 0 0 0 0 -54 -146 -79 -168 -150 -106 -110 -135 -171 -259 -284 -313
0 0 0 0 0 0 0 0 0 0 0 0 0 0 0 0 0 0 0 0 0 0 0 0 0 0 0 0 0 0 0 0 0 -38 -206 -103 0 0 0 0 0 0 0 0 0
0 0 0 0 0 0 0 0 0 0 0 0 0 0 0 0 0 0 0 0 0 0 0 0 0 0 0 0 0 0 0 0 0 0 0 0 0 0 0 0 0 0 0 0 0
0 0 0 0 0 0 0 0 0 0 0 0 0 0 0 0 0 0 0 0 0 0 0 0 0 0 0 0 0 0 0 0 0 0 0 0 0 0 0 0 0 0 0 0 0
0 0 0 0 0 0 0 0 0 0 0 0 0 0 0 0 0 0 0 0 0 0 0 0 0 0 0 0 0 0 0 0 0 0 0 0 0 0 0 0 0 0 0 0 0
0 0 0 0 0 0 0 0 0 0 0 0 0 0 0 0 0 0 0 0 0 0 0 0 0 0 0 0 0 0 0 0 0 0 0 0 0 0 0 0 0 0 0 0 0
0 0 0 0 0 0 0 0 0 0 0 0 0 0 0 0 0 0 0 0 0 0 0 0 0 0 0 0 0 0 0 0 0 0 0 0 0 0 0 0 0 0 0 0 0
0 0 0 0 0 0 0 0 0 0 0 0 0 0 0 0 0 0 0 0 0 0 0 0 0 0 0 0 0 0 0 0 0 0 0 0 0 0 0 0 0 0 0 0 0
0 0 0 0 0 0 0 0 0 0 0 0 0 0 0 0 0 0 0 0 0 0 0 0 0 0 0 0 0 0 0 -8 -74 0 0 0 0 0 0 0 0 0 0 0 0
0 0 0 0 0 0 0 0 0 0 0 0 0 0 0 0 0 0 0 0 0 0 0 0 0 0 0 0 0 0 0 0 -20 0 0 0 0 0 0 0 0 0 0 0 0
0 0 0 0 0 0 0 0 0 0 0 0 0 0 0 0 0 0 0 0 0 0 0 0 0 0 0 0 0 0 0 0 -1 0 0 0 0 0 0 0 0 0 0 0 0
0 0 0 0 0 0 0 0 0 0 0 0 0 0 0 0 0 0 0 0 0 0 0 0 0 0 0 0 0 0 0 0 0 -3 0 0 0 0 0 0 0 0 0 0 0
0 0 0 0 0 0 0 0 0 0 0 -1 0 0 0 0 0 0 0 0 0 0 0 0 0 0 0 0 0 0 0 0 0 -1 0 0 0 0 0 0 0 0 0 0 0
0 0 0 0 0 0 0 0 0 0 0 0 -8 0 0 0 0 0 0 0 0 0 0 0 0 0 0 0 0 0 0 0 0 0 0 0 0 0 0 0 0 0 0 0 0
0 0 0 0 0 0 0 0 0 0 -4 -8 -9 0 0 0 0 0 0 0 0 0 0 0 0 0 0 0 0 0 0 0 -5 -5 0 0 0 0 0 0 0 0 0 0 0
0 0 0 0 0 0 0 0 0 -9 0 0 0 0 0 0 0 -10 0 0 -1 -2 0 0 0 -1 0 0 0 0 0 -7 -2 -1 -20 0 0 0 0 0 0 0 0 0 0
0 0 0 0 0 0 0 0 0 -2 0 0 0 0 -12 -40 -33 -13 -4 0 0 -2 -11 0 0 -4 0 0 0 0 0 0 -7 -3 -7 0 -11 0 0 0 0 0 0 0 0
0 0 0 0 0 0 0 0 -8 0 0 0 0 0 -2 -28 -12 -15 -6 0 0 0 0 -13 -26 -9 -23 0 0 0 0 0 0 0 -25 -12 -71 0 0 0 0 0 0 0 0
0 -2 0 0 0 0 0 -1 0 0 0 0 0 0 0 0 -3 -30 -3 0 0 0 0 0 0 -1 -23 -26 -53 -59 -37 -9 -5 0 0 -1 -1 0 0 0 0 0 0 0 0
-18 0 0 0 0 -7 -11 -1 0 0 0 0 0 0 0 0 0 0 -4 0 0 0 0 0 -10 -14 -24 -30 -15 -30 -17 -16 -24 -16 0 -28 -21 0 0 0 0 0 0 0 0
-94 -6 0 0 0 0 -13 -5 -4 0 0 0 0 0 0 0 0 0 -1 0 0 0 0 0 -10 -32 -6 -44 0 -102 -38 0 0 -29 -5 -39 0 0 0 0 0 0 0 0 0
0 -12 -42 -2 -29 -42 0 0 -6 -4 0 0 0 -5 0 0 0 0 -26 -16 0 0 0 0 0 0 -13 -20 -60 -7 0 0 -18 -50 0 0 0 0 0 0 0 0 0 0 0
0 0 0 0 0 0 -19 -10 0 0 0 0 0 0 0 0 -4 0 0 0 0 0 0 0 0 0 0 0 -6 0 0 0 0 -23 -17 -9 0 0 0 0 0 0 0 0 0
0 0 0 0 0 0 0 0 0 0 0 -1 0 0 0 0 0 0 0 0 0 0 0 0 -2 0 0 0 -4 0 0 0 0 0 0 -17 0 0 0 0 0 0 0 0 0
Wind_Speed
24 24 24 24 24 24 24 25 25 24 23 24 24 25 26 27 28 24 29 12 16 3 23 24 23 25 28 30 30 29 28 24 22 8 10 13 16 16 13 12 13 23 23 22 23
24 24 24 24 24 24 24 24 24 24 24 23 24 24 25 26 27 29 25 1 14 17 23 25 9 9 11 16 28 29 21 27 13 11 10 13 17 14 19 18 19 21 23 23 23
24 24 24 24 24 24 24 24 24 24 23 23 23 22 23 24 25 21 10 2 5 9 24 25 26 4 8 11 13 16 31 21 14 6 7 9 11 12 18 21 22 19 18 19 20
24 24 24 24 24 23 23 23 23 23 21 21 21 21 20 16 17 15 10 7 4 5 22 26 25 25 3 5 11 10 24 21 12 10 8 9 9 12 13 17 16 15 15 16 17
24 24 24 24 23 23 23 23 22 21 21 20 20 20 18 17 22 9 10 8 6 5 13 15 5 18 3 6 4 4 11 8 7 9 8 8 9 9 11 13 13 13 13 14 15
24 24 24 23 23 23 22 22 22 21 20 19 18 18 16 24 15 10 8 7 5 9 15 20 16 18 18 1 2 4 4 1 3 5 7 7 8 8 9 9 10 11 12 13 14
24 24 23 23 23 23 23 22 22 20 18 17 16 16 21 12 16 10 7 7 6 7 5 15 20 24 16 10 6 2 10 2 1 2 4 7 10 7 5 6 8 9 10 12 14
23 23 23 23 22 22 22 23 22 17 16 15 16 16 21 15 5 7 4 5 5 3 11 15 18 24 9 23 5 5 7 9 2 1 4 9 10 6 6 5 7 7 9 11 13
23 23 23 22 22 21 21 20 18 16 12 13 14 12 22 12 9 5 2 7 6 10 11 19 14 8 7 10 8 5 10 10 9 5 5 9 9 7 5 5 7 7 8 10 12
23 23 22 20 19 17 17 15 15 15 12 10 12 19 15 13 7 2 2 5 9 9 9 11 10 9 9 8 13 10 12 11 12 9 8 7 9 5 5 8 9 9 10 11 13
24 23 21 18 16 15 15 13 16 16 11 11 8 11 15 10 5 2 0 6 7 8 11 8 11 11 11 9 11 11 8 12 7 4 8 10 10 9 10 11 11 10 11 12 12
24 22 20 17 15 15 13 15 24 26 30 6 5 4 15 10 9 4 2 5 7 14 11 15 15 13 11 12 13 20 23 16 4 3 10 13 13 13 12 13 14 13 13 11 10
24 22 19 16 15 14 9 21 27 26 26 28 8 9 11 10 15 7 4 4 9 11 11 14 14 10 17 18 14 15 23 18 13 11 17 11 18 16 13 12 13 14 14 13 12
23 21 16 13 14 9 9 9 17 24 23 19 7 11 8 8 13 9 5 6 10 12 13 22 17 26 19 15 20 18 24 26 21 14 22 13 29 16 11 11 11 11 11 10 11
23 20 14 6 22 13 17 19 23 18 23 11 7 13 6 6 13 3 7 6 16 16 17 20 18 20 23 21 20 20 18 23 22 19 23 18 23 16 11 10 9 7 8 10 11
20 16 12 11 14 9 22 22 18 15 21 12 11 12 9 7 9 7 7 8 12 21 25 25 26 23 18 16 22 23 18 25 17 22 26 20 20 20 15 12 7 6 7 7 7
20 11 7 18 12 19 21 18 15 16 16 18 17 11 10 9 10 10 11 14 17 20 24 26 21 21 18 24 18 18 22 21 21 20 24 20 22 24 16 11 7 2 4 7 8
16 10 6 3 22 22 19 13 19 21 22 19 19 23 20 14 13 15 16 19 15 22 30 24 21 16 14 19 23 15 16 22 25 21 21 15 24 17 7 6 3 1 4 7 9
15 12 11 9 6 12 15 12 13 22 22 23 28 28 23 19 19 14 17 20 21 15 24 30 29 26 20 12 16 20 27 20 28 40 39 30 16 13 5 3 2 4 6 8 11
15 11 13 11 9 11 12 16 28 18 23 26 28 31 30 21 27 27 21 21 19 27 16 24 32 21 23 19 18 23 28 31 25 37 39 39 20 21 12 12 9 9 9 11 11
15 12 14 12 11 10 10 15 19 19 23 23 26 31 31 31 23 25 30 28 27 25 22 22 26 28 16 18 22 23 23 27 35 31 32 35 23 15 10 10 10 10 10 12 12
15 16 15 11 11 11 11 18 21 25 26 25 24 27 29 32 33 32 20 22 34 32 26 27 24 32 31 22 26 30 30 27 29 34 37 40 26 17 11 11 12 10 12 12 13
15 17 15 11 15 21 24 19 19 23 25 24 25 27 26 31 31 28 18 18 21 24 25 26 27 31 36 39 26 28 33 34 38 34 40 40 29 16 9 10 11 9 7 11 13
16 16 16 12 10 22 25 24 20 19 23 22 28 27 29 28 30 33 30 22 22 22 23 23 32 36 39 29 28 34 35 37 37 34 37 33 17 16 14 13 9 10 11 12 15
17 20 17 23 24 24 24 27 27 26 26 29 26 23 25 30 32 30 29 27 22 21 24 26 35 37 41 45 40 37 37 35 31 35 41 21 16 10 10 9 9 10 12 14 16
24 23 23 20 24 24 23 25 27 29 29 27 28 30 31 32 26 30 29 29 28 27 28 25 32 37 41 41 35 40 41 40 37 38 24 17 15 11 7 6 10 14 15 17 19
27 25 18 22 26 26 27 28 29 29 25 25 28 32 31 28 28 30 32 32 31 34 35 36 34 34 40 34 32 37 34 31 29 26 32 23 14 8 10 13 14 14 16 17 18
Wind_Direction
306 303 301 297 298 295 294 293 293 296 304 301 296 295 279 284 270 290 248 283 307 331 280 239 198 197 205 220 217 216 240 216 219 7 23 26 50 63 76 41 38 59 64 71 80
305 305 299 291 289 291 292 295 297 294 299 299 297 300 287 289 269 238 211 209 315 300 267 228 316 187 189 171 202 207 261 220 341 6 17 351 63 55 62 66 56 56 69 78 74
305 301 293 287 287 288 291 294 297 298 302 299 296 303 303 294 276 291 337 5 340 332 193 205 223 53 136 150 162 165 201 223 12 2 16 358 11 43 61 43 47 50 42 37 35
298 293 288 290 288 292 295 297 299 302 309 306 300 305 311 331 305 350 8 1 7 354 181 213 238 231 100 144 152 158 184 283 333 21 29 22 19 13 5 18 26 22 23 26 24
293 289 287 289 291 298 302 302 305 307 308 307 305 305 315 306 229 14 21 5 21 81 144 152 117 167 120 138 144 179 276 308 343 16 43 27 340 343 354 2 9 12 14 19 17
296 293 293 292 294 300 303 303 306 309 309 311 312 311 312 281 329 29 28 27 73 121 151 169 162 169 244 129 156 152 203 356 39 7 23 350 340 326 343 357 5 10 12 12 12
297 293 295 295 297 298 298 298 300 305 313 317 320 318 296 303 325 354 8 24 105 118 116 163 181 271 295 314 268 99 168 86 44 18 354 19 321 316 355 1 354 358 0 3 3
294 292 290 296 297 296 294 287 292 319 321 325 320 318 298 319 199 340 26 26 24 13 311 302 285 280 299 284 320 200 179 226 131 232 309 307 291 299 316 333 333 342 350 353 352
292 294 296 297 298 301 302 304 316 326 345 338 331 328 299 331 316 329 1 331 338 319 315 294 300 296 296 295 295 265 269 254 252 233 258 278 286 287 306 315 312 325 335 344 350
297 298 304 316 326 332 327 339 346 333 341 348 326 313 306 317 334 299 315 317 317 314 314 310 306 289 281 267 274 274 269 261 251 241 220 260 293 288 294 296 301 307 316 324 328
311 315 323 333 338 339 336 357 341 335 326 316 348 319 339 350 31 128 181 308 312 304 293 297 288 276 277 263 279 278 275 289 313 224 254 267 285 295 290 284 288 295 306 315 321
319 322 326 332 336 334 336 325 319 311 296 257 244 292 301 338 326 321 166 285 280 284 288 285 281 287 284 285 279 280 286 324 333 326 298 285 290 290 289 285 280 285 293 305 317
318 320 326 336 339 336 348 311 313 319 308 296 249 281 297 308 300 296 196 227 286 285 279 281 282 288 287 282 280 276 274 277 276 280 297 289 285 288 287 289 292 286 290 298 308
289 301 333 357 349 12 359 5 340 330 319 310 308 295 284 298 296 293 197 264 281 282 288 286 285 287 293 279 288 282 282 280 283 275 287 272 290 266 264 279 287 288 289 297 306
300 310 333 73 301 1 339 330 320 344 318 4 341 339 320 247 339 287 191 268 280 286 290 289 286 288 283 286 287 284 285 281 277 275 289 276 284 286 234 250 264 286 307 311 309
329 339 349 347 340 335 312 318 332 335 316 339 346 331 305 286 287 315 285 281 287 288 287 288 288 293 284 285 283 287 287 280 277 276 277 285 267 287 242 240 236 277 310 328 341
327 5 20 314 348 332 321 327 326 316 346 326 332 344 322 293 278 305 296 285 284 287 285 289 282 283 292 288 278 287 286 284 275 270 274 290 281 279 251 224 208 218 321 325 337
355 30 40 89 300 314 321 335 310 309 310 329 331 319 314 302 288 283 291 287 279 283 287 289 289 275 266 273 279 272 281 274 280 275 288 277 278 300 327 180 152 89 344 340 340
19 31 16 21 114 355 334 326 321 317 325 320 311 309 306 301 291 282 280 291 288 271 280 284 284 314 286 264 277 276 282 289 281 282 284 291 295 303 317 295 290 329 330 332 332
19 41 26 25 27 355 339 320 308 328 323 313 308 300 303 318 302 293 288 307 293 287 280 280 282 302 297 293 290 289 290 286 284 281 281 282 283 281 261 264 277 292 308 321 326
22 35 9 32 22 359 339 325 331 351 328 322 308 302 300 296 316 298 284 300 295 306 305 292 286 283 295 293 291 294 286 281 281 286 285 286 289 300 264 264 283 294 305 316 323
26 10 25 46 12 1 341 334 328 320 323 320 313 306 302 298 297 296 308 303 287 282 291 310 296 279 278 293 298 297 296 294 289 284 280 282 296 302 290 279 282 295 303 313 323
31 21 43 49 1 336 328 335 334 324 324 321 314 311 309 301 300 297 314 304 308 307 299 297 293 284 281 282 295 290 285 292 294 289 282 283 288 299 291 299 293 303 323 318 323
36 17 31 47 16 340 329 329 338 341 331 326 312 313 308 305 301 294 291 304 307 309 307 303 283 283 282 295 302 296 292 289 292 295 290 292 278 272 272 281 294 308 312 319 321
34 9 7 348 342 341 337 326 323 324 328 321 320 320 316 308 302 298 307 303 311 312 308 299 286 286 284 281 288 291 289 293 292 290 293 295 288 262 268 281 297 311 319 320 324
8 3 359 0 349 338 338 335 329 322 324 316 316 312 311 305 305 300 307 305 300 308 310 304 295 294 286 288 285 285 285 286 287 286 298 294 289 282 290 302 310 310 310 313 318
13 7 8 2 352 347 343 333 328 326 324 325 318 313 307 311 311 304 301 299 299 297 296 296 295 297 288 293 293 287 290 290 296 302 291 280 284 294 302 301 305 311 313 317 321